Find Starlink 11101

NORAD ID: 59715 Int'l Des: 2024-088 Owner: SPXS Country: US Constellation: starlink operational
LEOCIRCULAR

Live-Position

3D-Globus wird geladen...

Über Starlink 11101

Beschreibung wird geladen...

Nächste Überflüge

Passes for default location (London). Set your location on the main map for personalized predictions.

Höhenverlauf

Loading altitude history...

Zweizeiliger Elementsatz

1 59715U 24088H 26125.48389328 .00000449 00000-0 85638-5 0 9992
2 59715 53.1598 46.2011 0001246 74.4771 285.6385 15.69711269115198
Epoch: 5. Mai 2026 • Age: 14 hours

Aktueller Status

Höhe 370.7 km
Geschwindigkeit 7.69 km/s
Subsatellitenpunkt -33.72°S, 131.98°E
Startdatum 10. Mai 2024
Alter 1.9 years
Typ internet

Technische Details

Klassifizierung Payload
Masse 960.00 kg
Trockenmasse 910.00 kg
Gesamtmasse 960.00 kg
Länge 0.30 m
Durchmesser 4.10 m
Spannweite 29.00 m
Form Box + pan
Hersteller SPXS
Bus-Typ Starlink V2MD
Phasenstatus In Orbit
Besitzer/Staat SPXS/US

Most Searched